Theta_e
305 298 295 298 300 301 300 297 295 296 298 298 299 300 302 303 303 303 302 303 303 304 307 308 309 310 310 311 311 312 320 327 332 334 333 332 332 333 334 336 335 335 335 334
298 294 300 303 302 299 299 295 295 296 298 298 296 297 299 298 298 300 300 301 301 302 304 307 308 309 310 309 310 311 313 320 327 331 334 333 333 334 334 334 334 334 333 333
292 295 300 298 297 297 296 294 295 295 295 296 294 293 293 296 298 299 301 301 302 301 302 305 306 308 310 310 311 311 312 316 323 328 330 331 331 330 329 331 331 333 333 333
294 298 293 295 295 298 294 299 296 295 293 289 294 286 291 294 295 296 297 298 300 301 302 303 304 305 306 309 311 311 313 313 316 326 328 327 325 323 326 328 330 331 333 333
292 294 292 292 294 299 296 297 296 296 294 292 291 287 292 293 292 293 295 297 298 299 300 301 302 304 305 307 308 309 308 309 313 315 316 319 318 319 321 320 321 323 325 326
295 299 297 294 295 298 298 296 295 294 292 285 291 288 288 291 292 292 294 295 296 297 298 299 301 302 303 304 305 306 305 305 308 309 311 311 312 313 314 315 316 317 319 320
293 294 298 297 292 296 296 292 283 282 281 282 290 288 290 291 293 293 293 295 295 296 297 297 298 299 300 300 302 302 302 301 304 305 305 305 305 308 308 308 309 309 310 311
286 283 294 298 294 290 292 291 285 278 280 283 286 283 286 292 293 293 294 295 296 296 296 297 298 298 298 298 298 298 298 297 299 300 301 301 301 302 303 303 304 303 304 305
285 284 295 296 297 295 290 286 291 284 282 283 284 286 289 291 290 291 291 293 293 294 295 296 297 297 296 296 297 296 296 296 296 297 298 298 297 298 298 299 300 300 300 301
290 283 291 293 297 297 294 294 285 288 278 277 281 282 284 286 287 290 290 291 292 293 294 295 296 296 296 296 296 296 295 294 294 295 296 295 295 295 296 297 296 296 297 298
292 289 287 292 289 290 291 289 290 289 286 280 277 281 292 288 289 289 289 291 291 292 293 295 296 296 296 295 295 294 293 293 292 293 295 294 293 293 294 294 294 294 295 295
292 290 284 285 290 294 293 291 291 284 282 285 283 280 291 290 291 291 290 291 291 292 293 295 295 295 294 294 294 293 292 292 292 292 292 292 291 291 290 291 291 292 292 293
292 287 281 282 287 290 289 291 292 290 289 283 282 281 291 293 291 290 290 290 291 292 293 294 294 294 293 293 292 291 291 290 290 290 290 290 289 288 288 288 289 289 289 290
294 287 284 280 283 288 285 288 291 290 285 284 285 284 287 290 291 289 289 290 290 291 291 292 293 293 293 292 291 290 289 289 288 288 288 287 286 286 286 287 287 287 288 288
291 281 283 283 285 287 287 287 288 286 287 284 286 286 288 291 289 288 289 289 289 289 290 290 291 292 292 290 289 288 287 287 286 286 286 285 284 284 284 284 285 285 286 287
289 280 281 277 282 283 284 286 287 287 287 286 286 285 292 289 288 288 288 288 288 289 289 290 290 291 290 288 285 285 285 285 284 284 283 283 282 282 282 282 283 283 284 285
284 281 281 278 276 277 278 281 285 286 288 287 283 286 287 286 285 286 287 288 289 289 289 289 290 290 288 285 284 283 283 284 283 282 282 281 280 280 281 281 281 281 282 283
280 279 280 277 275 273 279 283 283 284 285 287 285 286 286 286 287 288 289 289 290 289 289 289 290 288 286 284 283 282 283 282 281 280 280 279 279 278 279 280 279 280 280 281
285 282 275 277 277 277 279 280 280 280 280 286 286 285 285 286 286 286 289 290 289 289 289 289 287 285 284 282 281 280 281 280 279 278 277 277 278 277 278 278 278 279 279 279
284 284 281 277 274 272 279 282 285 284 277 285 285 285 285 285 280 284 288 289 289 289 289 286 285 283 282 280 279 278 278 277 276 276 276 277 277 277 277 277 277 279 279 279
278 279 277 275 275 278 282 283 285 275 278 285 287 286 285 283 286 288 289 288 289 287 286 284 283 281 279 277 277 277 276 275 275 276 276 277 276 276 277 277 277 278 278 278
277 276 276 276 274 272 283 282 279 284 288 287 287 287 286 287 287 287 287 286 286 284 283 282 279 279 277 276 275 275 275 274 275 275 275 274 275 275 276 275 276 277 278 277
274 280 279 279 279 283 285 286 288 289 288 288 286 287 287 286 286 287 286 285 284 283 281 279 277 276 276 274 273 273 274 273 273 272 272 273 273 274 274 274 274 275 276 276
279 282 278 279 283 283 284 286 287 288 287 288 287 287 287 286 286 284 283 282 281 280 279 278 276 275 275 273 272 272 272 272 269 270 272 273 272 272 274 274 274 274 274 274
282 281 279 279 282 284 285 286 288 288 288 285 286 286 285 284 283 283 281 280 280 279 278 276 275 274 272 271 271 271 271 270 269 270 271 272 273 272 272 273 273 272 273 274
282 281 279 279 285 284 284 286 288 286 286 285 285 284 282 282 281 281 279 279 278 277 277 275 273 271 271 270 270 270 269 268 267 269 271 271 270 271 271 271 271 274 274 275
Wind_Speed
12 10 17 18 17 17 11 13 12 5 3 3 6 6 2 7 7 8 8 9 10 10 11 11 12 12 12 12 11 10 9 7 6 7 7 7 6 6 7 7 10 10 10 10
7 16 14 14 16 15 13 13 14 7 4 1 1 4 8 10 9 9 9 11 11 11 12 13 14 14 14 14 13 12 11 8 6 5 5 5 5 4 3 4 5 5 7 8
12 1 9 9 10 16 13 12 14 9 6 5 1 2 6 8 10 11 12 13 13 13 13 14 15 15 14 15 14 14 13 12 9 7 4 4 3 3 4 5 2 3 4 5
11 5 9 13 18 16 17 16 9 9 10 7 1 3 3 5 9 11 11 12 13 14 14 14 15 16 15 14 13 14 14 15 12 12 5 7 4 5 6 6 5 6 7 6
7 10 11 12 15 15 13 10 11 14 9 4 6 1 4 4 5 9 11 11 12 13 14 14 14 14 15 14 14 13 14 16 15 14 12 7 7 5 5 5 7 7 6 6
7 1 5 4 4 10 13 13 10 6 3 6 10 9 7 4 6 8 10 10 11 11 13 13 13 13 14 14 13 13 15 15 15 14 14 14 12 10 8 8 7 6 6 6
9 9 4 9 10 7 10 17 4 5 6 7 3 11 4 7 8 8 8 9 10 11 12 12 13 13 14 15 15 13 16 16 15 14 14 15 15 13 11 10 8 10 8 8
11 8 10 8 5 9 13 15 7 6 6 8 3 6 7 8 7 7 7 8 10 11 10 11 11 11 12 12 14 14 13 15 14 14 13 12 13 8 8 10 9 8 8 8
11 4 3 2 1 11 6 6 4 6 2 3 7 5 3 4 7 8 9 9 10 10 10 10 11 11 11 11 12 12 12 12 13 14 12 12 12 12 11 12 11 9 10 10
2 6 2 1 1 4 4 10 4 2 8 6 6 6 6 10 10 9 8 8 9 9 9 8 9 10 10 10 11 12 12 13 12 13 11 11 11 11 10 10 11 12 11 12
4 3 2 3 2 9 6 6 2 3 3 3 6 4 11 14 11 9 8 7 7 8 7 8 8 9 9 9 10 10 11 12 13 12 11 11 11 12 11 10 11 11 12 12
3 4 5 3 1 3 3 2 7 4 4 2 3 5 9 11 8 8 6 6 6 6 6 6 7 8 8 8 9 10 10 11 11 11 11 11 11 12 12 12 13 12 12 12
2 2 5 6 4 2 2 2 5 7 3 4 3 6 10 8 7 5 5 5 5 5 6 5 5 6 7 8 8 9 10 11 11 11 11 12 12 12 13 13 13 13 13 13
2 5 6 3 4 2 5 6 7 4 2 5 2 12 14 8 2 5 3 4 4 5 5 6 7 7 6 7 8 8 9 10 11 11 11 12 13 13 13 13 13 13 13 13
4 5 6 8 7 4 5 8 7 5 3 4 9 9 14 9 5 4 2 2 2 4 7 9 10 9 9 9 8 8 8 9 10 10 10 11 11 12 12 13 13 12 12 11
4 4 2 4 7 5 5 4 6 5 6 6 8 9 5 7 5 3 1 2 3 2 6 9 10 10 7 7 6 7 7 7 8 8 8 9 10 11 11 11 11 11 11 12
4 5 1 3 4 3 1 4 5 6 5 5 7 5 10 7 4 1 4 4 3 4 9 11 11 9 7 7 7 8 8 7 7 7 8 9 10 11 11 11 12 11 12 12
3 3 3 2 1 4 3 3 4 3 3 5 9 10 7 4 1 6 7 6 5 6 10 10 8 7 5 5 6 7 7 7 7 8 9 10 10 11 10 11 12 12 12 12
6 3 4 2 2 3 3 6 5 6 7 9 8 8 6 3 3 11 8 3 2 7 7 6 4 5 5 5 7 7 7 7 7 8 9 9 9 10 11 11 12 11 11 10
6 7 2 2 2 5 4 5 2 2 3 10 10 11 8 5 4 3 2 2 8 7 6 5 6 5 5 5 6 7 6 6 7 8 8 9 9 9 10 10 10 9 9 10
3 3 2 2 2 5 5 8 3 4 2 12 12 9 7 5 6 7 4 7 5 4 6 5 5 4 4 5 6 7 6 6 7 7 8 7 7 8 8 8 8 8 8 8
3 5 3 2 3 7 10 5 6 3 7 9 8 5 5 7 6 5 7 6 5 6 5 4 4 4 3 4 5 5 4 5 6 7 7 7 6 6 6 7 7 7 8 8
3 3 1 6 3 4 13 1 3 1 7 7 3 3 6 6 6 7 7 5 6 6 4 3 4 4 3 2 3 4 4 6 7 7 6 5 6 5 6 7 7 6 6 6
5 5 3 1 3 12 8 10 7 5 5 3 4 6 5 7 6 6 5 5 5 4 5 2 4 5 4 1 1 2 4 5 5 6 6 6 6 6 6 6 5 5 6 6
1 8 6 6 12 11 11 10 10 9 6 3 3 4 6 5 5 5 5 5 5 5 4 4 4 4 3 1 2 1 3 4 5 6 6 6 6 6 7 6 6 6 6 7
9 10 8 6 5 5 1 2 2 5 4 5 6 4 4 5 6 4 6 5 5 5 3 4 4 3 3 2 3 2 1 3 4 6 5 5 6 6 6 6 7 10 13 14
Wind_Direction
201 204 209 198 201 235 277 215 199 81 62 232 209 235 254 1 6 20 24 38 38 40 42 33 32 26 22 24 11 350 316 280 248 244 242 248 258 259 268 276 266 267 267 269
182 228 212 213 212 217 239 205 193 111 99 249 184 236 73 54 40 37 42 49 45 37 35 33 30 31 30 23 18 16 3 336 297 260 268 252 269 270 271 281 256 245 260 271
214 65 206 194 199 211 207 234 204 193 132 77 216 205 132 75 64 53 54 58 54 47 41 34 34 33 30 30 23 24 22 15 3 335 303 289 26 332 285 267 283 277 240 230
227 132 197 199 207 207 206 212 288 152 186 208 219 168 169 116 82 64 55 50 49 48 51 45 38 38 35 32 30 32 30 30 24 15 3 2 340 335 357 360 350 345 333 317
170 172 181 204 207 207 224 148 186 258 235 102 213 152 178 175 101 70 65 59 54 47 46 45 39 38 36 29 30 29 33 32 27 34 31 27 20 2 348 357 346 344 342 333
131 30 180 178 104 205 132 130 131 147 212 227 193 182 201 184 125 100 75 62 55 52 49 44 38 33 33 28 25 27 30 30 24 25 28 26 25 16 21 9 4 357 0 3
158 156 132 158 119 161 168 162 128 178 197 236 303 183 90 123 90 83 76 65 57 52 44 38 34 30 27 24 23 24 24 28 24 23 26 24 18 16 18 11 2 1 357 357
181 179 170 168 196 177 191 185 174 190 195 179 147 213 125 91 92 92 85 73 61 49 47 42 40 36 33 29 28 22 25 23 20 20 19 20 19 13 13 10 2 0 354 348
191 112 117 85 179 171 167 208 34 102 17 152 145 93 123 127 110 108 91 76 60 50 40 34 36 34 29 29 30 25 24 24 23 19 15 17 14 12 8 5 1 357 350 344
214 122 4 101 177 71 189 140 140 224 169 206 184 175 149 163 141 128 104 82 61 44 37 31 29 30 29 26 23 27 25 25 19 15 13 11 8 4 2 1 1 355 348 347
132 153 133 223 325 174 148 177 92 92 350 224 147 107 123 146 141 127 101 73 54 44 31 29 29 29 26 27 23 22 20 18 14 11 5 4 3 359 356 358 356 352 342 344
26 98 127 66 42 1 35 209 183 209 167 50 334 108 100 119 120 109 99 75 46 40 42 39 45 32 26 23 18 16 15 15 10 4 360 1 358 354 354 353 350 348 342 342
20 105 133 136 121 84 255 127 122 107 56 193 195 147 139 126 129 107 87 60 64 61 57 64 34 24 16 14 7 8 8 3 360 357 358 358 358 352 350 349 345 343 342 340
300 52 20 158 74 118 167 168 177 142 146 157 67 141 175 169 137 112 79 63 57 53 46 27 17 9 9 5 2 359 358 358 356 354 355 355 354 349 344 344 344 342 342 339
67 91 82 69 41 87 140 152 158 177 140 215 156 148 182 196 140 78 19 30 35 26 18 4 359 352 355 357 355 353 354 353 352 348 352 349 345 344 342 343 342 339 339 338
38 99 96 49 21 40 102 126 147 122 111 104 126 134 144 110 114 116 16 326 251 294 344 345 347 349 357 356 347 340 352 351 342 345 348 344 344 340 342 340 336 334 336 338
58 138 218 96 354 349 197 205 178 145 180 183 191 141 145 146 146 241 285 296 233 324 337 334 331 339 355 355 345 344 340 343 346 346 348 345 344 341 342 342 342 343 340 335
94 68 11 106 265 203 74 73 26 202 188 138 106 134 145 144 219 285 273 256 258 324 323 322 331 334 351 338 335 331 332 342 342 347 348 351 347 344 343 344 346 345 342 338
34 98 96 153 213 327 190 200 185 193 186 196 175 162 151 163 277 257 216 182 317 323 320 322 340 331 329 342 343 331 335 344 346 352 349 347 347 342 342 348 346 344 338 336
52 56 61 166 214 212 62 135 145 188 254 170 167 161 169 191 266 31 133 223 313 317 323 331 334 325 334 356 342 328 342 344 355 349 343 343 345 342 336 339 337 335 333 331
37 30 75 134 283 285 148 141 148 171 130 161 165 169 187 237 279 320 329 294 306 310 313 325 315 327 342 338 333 328 336 353 343 332 328 329 334 329 327 327 324 323 324 324
202 160 173 133 203 258 145 119 204 95 142 156 171 194 241 281 280 289 295 294 296 295 299 308 305 303 319 335 330 318 326 341 329 327 321 323 323 322 323 317 315 320 316 317
239 214 242 222 235 85 187 190 196 267 162 164 208 229 271 268 281 299 298 284 277 282 284 256 263 280 267 294 306 303 351 335 333 328 312 310 322 316 318 318 319 319 320 315
224 198 236 296 241 236 224 240 240 230 221 206 253 275 223 256 283 278 274 280 275 271 268 253 256 269 275 216 284 303 324 331 326 309 314 314 315 324 315 318 318 315 315 316
333 156 202 252 272 269 256 244 239 225 229 206 208 202 238 274 271 264 271 267 269 274 263 249 261 265 254 228 263 266 299 319 309 309 305 308 314 313 312 309 312 305 300 304
190 201 201 230 206 231 213 118 149 216 215 218 203 209 221 232 255 266 266 269 270 271 268 252 245 246 251 232 254 268 292 293 300 306 305 318 310 312 308 310 306 303 305 307